| time (UTC) | temp F | wind direction | speed MPH | gust MPH | rain 1hr in | rain 24hr in | rain mn in | humidity % | barometer mb |
| 20260510111538 | 66 | 59 | 5.0 | 11.0 | 0.00 | 0.00 | 0.00 | 82 | 1013.3 |
| 20260510111017 | 66 | 41 | 4.0 | 13.0 | 0.00 | 0.00 | 0.00 | 83 | 1013.3 |
| 20260510110519 | 66 | 34 | 4.0 | 13.0 | 0.00 | 0.00 | 0.00 | 83 | 1013.5 |
| 20260510110038 | 65 | 32 | 5.0 | 12.0 | 0.00 | 0.00 | 0.00 | 83 | 1013.5 |
| 20260510105518 | 65 | 65 | 4.0 | 12.0 | 0.00 | 0.00 | 0.00 | 83 | 1013.5 |
| 20260510105018 | 65 | 32 | 6.0 | 12.0 | 0.00 | 0.00 | 0.00 | 84 | 1013.3 |
| 20260510104534 | 65 | 27 | 4.0 | 12.0 | 0.00 | 0.00 | 0.00 | 84 | 1013.3 |
| 20260510104018 | 65 | 53 | 5.0 | 11.0 | 0.00 | 0.00 | 0.00 | 84 | 1013.2 |
| 20260510103518 | 65 | 18 | 5.0 | 11.0 | 0.00 | 0.00 | 0.00 | 84 | 1013.3 |
| 20260510103040 | 65 | 34 | 4.0 | 10.0 | 0.00 | 0.00 | 0.00 | 84 | 1013.1 |
| 20260510102525 | 65 | 355 | 4.0 | 14.0 | 0.00 | 0.00 | 0.00 | 83 | 1013.0 |
| 20260510102021 | 66 | 23 | 5.0 | 14.0 | 0.00 | 0.00 | 0.00 | 83 | 1013.0 |
| 20260510101536 | 66 | 37 | 6.0 | 13.0 | 0.00 | 0.00 | 0.00 | 82 | 1013.0 |
| 20260510101020 | 66 | 47 | 6.0 | 13.0 | 0.00 | 0.00 | 0.00 | 81 | 1012.8 |
| 20260510100518 | 66 | 5 | 6.0 | 15.0 | 0.00 | 0.00 | 0.00 | 81 | 1012.8 |
| 20260510100052 | 66 | 5 | 8.0 | 15.0 | 0.00 | 0.00 | 0.00 | 81 | 1013.0 |
| 20260510095518 | 66 | 11 | 9.0 | 17.0 | 0.00 | 0.00 | 0.00 | 80 | 1013.0 |
| 20260510095017 | 66 | 13 | 6.0 | 17.0 | 0.00 | 0.00 | 0.00 | 80 | 1013.0 |
| 20260510094546 | 67 | 31 | 9.0 | 17.0 | 0.00 | 0.00 | 0.00 | 80 | 1013.0 |
| 20260510094018 | 67 | 5 | 9.0 | 18.0 | 0.00 | 0.00 | 0.00 | 79 | 1013.1 |
| 20260510093519 | 68 | 14 | 9.0 | 20.0 | 0.00 | 0.00 | 0.00 | 78 | 1013.1 |
| 20260510093041 | 69 | 12 | 11.0 | 20.0 | 0.00 | 0.00 | 0.00 | 78 | 1013.1 |
| 20260510092521 | 69 | 9 | 8.0 | 19.0 | 0.00 | 0.00 | 0.00 | 78 | 1012.9 |
| 20260510092021 | 70 | 10 | 8.0 | 19.0 | 0.00 | 0.00 | 0.00 | 78 | 1012.8 |
| 20260510091540 | 70 | 355 | 8.0 | 19.0 | 0.00 | 0.00 | 0.00 | 78 | 1012.8 |
| 20260510091018 | 70 | 335 | 6.0 | 12.0 | 0.00 | 0.00 | 0.00 | 77 | 1012.5 |
| 20260510090518 | 71 | 339 | 7.0 | 14.0 | 0.00 | 0.00 | 0.00 | 77 | 1012.3 |
| 20260510090037 | 71 | 352 | 5.0 | 14.0 | 0.00 | 0.00 | 0.00 | 77 | 1012.0 |
| 20260510085520 | 71 | 12 | 7.0 | 14.0 | 0.00 | 0.00 | 0.00 | 78 | 1012.2 |
| 20260510085018 | 71 | 355 | 5.0 | 13.0 | 0.00 | 0.00 | 0.00 | 78 | 1012.0 |
| 20260510084546 | 71 | 11 | 5.0 | 11.0 | 0.00 | 0.00 | 0.00 | 79 | 1011.8 |
| 20260510084020 | 71 | 5 | 6.0 | 12.0 | 0.00 | 0.00 | 0.00 | 79 | 1011.6 |
| 20260510083521 | 71 | 349 | 6.0 | 16.0 | 0.00 | 0.00 | 0.00 | 79 | 1011.6 |
| 20260510083046 | 71 | 5 | 7.0 | 16.0 | 0.00 | 0.00 | 0.00 | 79 | 1011.7 |
| 20260510082519 | 71 | 5 | 9.0 | 16.0 | 0.00 | 0.00 | 0.00 | 79 | 1011.8 |
| 20260510082022 | 71 | 360 | 8.0 | 16.0 | 0.00 | 0.00 | 0.00 | 80 | 1012.2 |
| 20260510081541 | 71 | 342 | 8.0 | 16.0 | 0.00 | 0.00 | 0.00 | 80 | 1012.3 |
| 20260510081020 | 72 | 331 | 8.0 | 16.0 | 0.00 | 0.00 | 0.00 | 81 | 1012.4 |
| 20260510080520 | 72 | 291 | 9.0 | 16.0 | 0.00 | 0.00 | 0.00 | 80 | 1012.4 |
| 20260510080042 | 73 | 346 | 6.0 | 15.0 | 0.00 | 0.00 | 0.00 | 82 | 1012.4 |
| 20260510075524 | 73 | 355 | 6.0 | 15.0 | 0.00 | 0.00 | 0.00 | 83 | 1012.2 |
| 20260510075018 | 73 | 360 | 8.0 | 17.0 | 0.00 | 0.00 | 0.00 | 82 | 1012.3 |
| 20260510074536 | 73 | 283 | 8.0 | 17.0 | 0.00 | 0.00 | 0.00 | 82 | 1012.6 |
| 20260510074021 | 72 | 341 | 6.0 | 13.0 | 0.00 | 0.00 | 0.00 | 82 | 1012.7 |
| 20260510073523 | 72 | 341 | 3.0 | 9.0 | 0.00 | 0.00 | 0.00 | 80 | 1012.2 |
| 20260510073043 | 72 | 339 | 2.0 | 7.0 | 0.00 | 0.00 | 0.00 | 80 | 1011.7 |
| 20260510072520 | 73 | 317 | 2.0 | 7.0 | 0.00 | 0.00 | 0.00 | 80 | 1011.1 |
| 20260510072021 | 73 | 340 | 2.0 | 5.0 | 0.00 | 0.00 | 0.00 | 79 | 1010.8 |
| 20260510071553 | 73 | 9 | 2.0 | 4.0 | 0.00 | 0.00 | 0.00 | 78 | 1010.6 |
| 20260510071017 | 73 | 31 | 1.0 | 4.0 | 0.00 | 0.00 | 0.00 | 78 | 1010.6 |
| 20260510070517 | 73 | 47 | 1.0 | 4.0 | 0.00 | 0.00 | 0.00 | 77 | 1010.4 |
| 20260510070043 | 74 | 43 | 1.0 | 4.0 | 0.00 | 0.00 | 0.00 | 76 | 1010.5 |
| 20260510065519 | 74 | 47 | 1.0 | 5.0 | 0.00 | 0.00 | 0.00 | 76 | 1010.3 |
| 20260510065018 | 74 | 42 | 2.0 | 6.0 | 0.00 | 0.00 | 0.00 | 75 | 1010.3 |
| 20260510064559 | 75 | 43 | 2.0 | 8.0 | 0.00 | 0.00 | 0.00 | 75 | 1010.3 |
| 20260510064023 | 75 | 32 | 3.0 | 8.0 | 0.00 | 0.00 | 0.00 | 74 | 1010.2 |
| 20260510063519 | 75 | 32 | 3.0 | 6.0 | 0.00 | 0.00 | 0.00 | 73 | 1010.3 |
| 20260510063041 | 75 | 0 | 2.0 | 7.0 | 0.00 | 0.00 | 0.00 | 73 | 1010.3 |
| 20260510062520 | 75 | 44 | 2.0 | 7.0 | 0.00 | 0.00 | 0.00 | 72 | 1010.4 |
| 20260510062019 | 76 | 0 | 0.0 | 12.0 | 0.00 | 0.00 | 0.00 | 72 | 1010.2 |
| 20260510061537 | 76 | 64 | 4.0 | 17.0 | 0.00 | 0.00 | 0.00 | 72 | 1010.1 |
| 20260510061019 | 76 | 63 | 8.0 | 17.0 | 0.00 | 0.00 | 0.00 | 71 | 1010.1 |
| 20260510060521 | 76 | 67 | 5.0 | 16.0 | 0.00 | 0.00 | 0.00 | 71 | 1010.6 |
| 20260510060038 | 76 | 9 | 7.0 | 16.0 | 0.00 | 0.00 | 0.00 | 71 | 1010.9 |
| 20260510055518 | 76 | 12 | 8.0 | 20.0 | 0.00 | 0.00 | 0.00 | 71 | 1011.5 |
| 20260510055019 | 76 | 342 | 12.0 | 20.0 | 0.00 | 0.00 | 0.00 | 72 | 1012.1 |
| 20260510054534 | 75 | 360 | 10.0 | 18.0 | 0.00 | 0.00 | 0.00 | 73 | 1012.3 |
| 20260510054019 | 74 | 340 | 8.0 | 16.0 | 0.00 | 0.00 | 0.00 | 75 | 1012.0 |
| 20260510053519 | 73 | 62 | 6.0 | 17.0 | 0.00 | 0.00 | 0.00 | 77 | 1011.5 |
| 20260510053042 | 73 | 336 | 8.0 | 17.0 | 0.00 | 0.00 | 0.00 | 77 | 1011.6 |
| 20260510052518 | 73 | 297 | 4.0 | 11.0 | 0.00 | 0.00 | 0.00 | 75 | 1011.6 |
| 20260510052019 | 73 | 316 | 3.0 | 7.0 | 0.00 | 0.00 | 0.00 | 73 | 1010.4 |
| 20260510051552 | 73 | 57 | 3.0 | 6.0 | 0.00 | 0.00 | 0.00 | 73 | 1009.1 |
| 20260510051018 | 73 | 69 | 3.0 | 6.0 | 0.00 | 0.00 | 0.00 | 73 | 1008.8 |
| 20260510050521 | 74 | 63 | 2.0 | 6.0 | 0.00 | 0.00 | 0.00 | 73 | 1008.8 |
| 20260510050042 | 74 | 57 | 2.0 | 6.0 | 0.00 | 0.00 | 0.00 | 72 | 1008.9 |
| 20260510045518 | 74 | 59 | 2.0 | 7.0 | 0.00 | 0.00 | 0.00 | 72 | 1008.8 |
| 20260510045020 | 75 | 59 | 2.0 | 8.0 | 0.00 | 0.00 | 0.00 | 71 | 1008.8 |
| 20260510044540 | 75 | 66 | 3.0 | 8.0 | 0.00 | 0.00 | 0.00 | 71 | 1008.8 |
| 20260510044018 | 75 | 101 | 4.0 | 8.0 | 0.00 | 0.00 | 0.00 | 71 | 1008.7 |
| 20260510043518 | 75 | 61 | 4.0 | 10.0 | 0.00 | 0.00 | 0.00 | 71 | 1008.4 |
| 20260510043045 | 75 | 66 | 5.0 | 13.0 | 0.00 | 0.00 | 0.00 | 71 | 1008.2 |
| 20260510042518 | 75 | 63 | 5.0 | 13.0 | 0.00 | 0.00 | 0.00 | 70 | 1008.1 |
| 20260510042019 | 75 | 71 | 6.0 | 13.0 | 0.00 | 0.00 | 0.00 | 70 | 1008.1 |
| 20260510041535 | 75 | 64 | 6.0 | 11.0 | 0.00 | 0.00 | 0.00 | 71 | 1008.1 |
| 20260510041041 | 75 | 65 | 7.0 | 11.0 | 0.00 | 0.00 | 0.00 | 71 | 1008.0 |
| 20260510040520 | 75 | 66 | 7.0 | 11.0 | 0.00 | 0.00 | 0.00 | 72 | 1008.2 |
| 20260510040035 | 74 | 80 | 6.0 | 10.0 | 0.00 | 0.00 | 0.00 | 73 | 1008.2 |
| 20260510035519 | 74 | 82 | 3.0 | 9.0 | 0.00 | 0.00 | 0.00 | 74 | 1008.4 |
| 20260510035019 | 74 | 65 | 4.0 | 9.0 | 0.00 | 0.00 | 0.00 | 74 | 1008.5 |
| 20260510034534 | 74 | 28 | 3.0 | 7.0 | 0.00 | 0.00 | 0.00 | 74 | 1008.7 |
| 20260510034019 | 74 | 62 | 3.0 | 9.0 | 0.00 | 0.00 | 0.00 | 73 | 1008.6 |
| 20260510033519 | 74 | 61 | 4.0 | 10.0 | 0.00 | 0.00 | 0.00 | 73 | 1008.7 |
| 20260510033041 | 74 | 70 | 3.0 | 10.0 | 0.00 | 0.00 | 0.00 | 73 | 1008.6 |
| 20260510032519 | 74 | 56 | 4.0 | 9.0 | 0.00 | 0.00 | 0.00 | 74 | 1008.6 |
| 20260510032018 | 74 | 65 | 3.0 | 9.0 | 0.00 | 0.00 | 0.00 | 74 | 1008.7 |
| 20260510031536 | 74 | 69 | 4.0 | 9.0 | 0.00 | 0.00 | 0.00 | 74 | 1008.7 |
| 20260510031018 | 75 | 63 | 3.0 | 8.0 | 0.00 | 0.00 | 0.00 | 73 | 1008.6 |
| 20260510030517 | 75 | 55 | 3.0 | 8.0 | 0.00 | 0.00 | 0.00 | 72 | 1008.6 |
| 20260510030047 | 75 | 62 | 3.0 | 6.0 | 0.00 | 0.00 | 0.00 | 72 | 1008.6 |
| 20260510025518 | 75 | 57 | 3.0 | 6.0 | 0.00 | 0.00 | 0.00 | 72 | 1008.6 |
| 20260510025021 | 76 | 0 | 1.0 | 5.0 | 0.00 | 0.00 | 0.00 | 71 | 1008.9 |
| 20260510024547 | 76 | 59 | 2.0 | 6.0 | 0.00 | 0.00 | 0.00 | 71 | 1008.8 |
| 20260510024020 | 76 | 62 | 2.0 | 9.0 | 0.00 | 0.00 | 0.00 | 70 | 1008.8 |
| 20260510023518 | 76 | 20 | 3.0 | 9.0 | 0.00 | 0.00 | 0.00 | 70 | 1008.7 |
| 20260510023038 | 76 | 48 | 3.0 | 8.0 | 0.00 | 0.00 | 0.00 | 71 | 1008.8 |
| 20260510022520 | 76 | 49 | 3.0 | 8.0 | 0.00 | 0.00 | 0.00 | 71 | 1008.7 |
| 20260510022020 | 76 | 36 | 2.0 | 7.0 | 0.00 | 0.00 | 0.00 | 72 | 1008.6 |
| 20260510021536 | 76 | 44 | 2.0 | 8.0 | 0.00 | 0.00 | 0.00 | 72 | 1008.5 |
| 20260510021019 | 76 | 39 | 3.0 | 8.0 | 0.00 | 0.00 | 0.00 | 73 | 1008.5 |
| 20260510020518 | 77 | 46 | 2.0 | 8.0 | 0.00 | 0.00 | 0.00 | 73 | 1008.5 |
| 20260510020035 | 77 | 76 | 1.0 | 5.0 | 0.00 | 0.00 | 0.00 | 73 | 1008.5 |
| 20260510015518 | 77 | 0 | 0.0 | 6.0 | 0.00 | 0.00 | 0.00 | 73 | 1008.4 |
| 20260510015017 | 77 | 38 | 2.0 | 6.0 | 0.00 | 0.00 | 0.00 | 73 | 1008.5 |
| 20260510014534 | 77 | 37 | 2.0 | 6.0 | 0.00 | 0.00 | 0.00 | 73 | 1008.4 |
| 20260510014019 | 78 | 0 | 0.0 | 0.0 | 0.00 | 0.00 | 0.00 | 73 | 1008.4 |
| 20260510013519 | 78 | 0 | 0.0 | 0.0 | 0.00 | 0.00 | 0.00 | 72 | 1008.3 |
| 20260510013047 | 78 | 0 | 0.0 | 0.0 | 0.00 | 0.00 | 0.00 | 72 | 1008.3 |
| 20260510012518 | 79 | 0 | 0.0 | 0.0 | 0.00 | 0.00 | 0.00 | 71 | 1008.1 |
| 20260510012019 | 79 | 0 | 0.0 | 5.0 | 0.00 | 0.00 | 0.00 | 70 | 1008.1 |
| 20260510011541 | 80 | 0 | 0.0 | 5.0 | 0.00 | 0.00 | 0.00 | 68 | 1008.0 |
| 20260510011018 | 80 | 60 | 2.0 | 5.0 | 0.00 | 0.00 | 0.00 | 66 | 1007.9 |
| 20260510010519 | 80 | 67 | 2.0 | 6.0 | 0.00 | 0.00 | 0.00 | 64 | 1007.9 |
| 20260510010056 | 81 | 53 | 3.0 | 6.0 | 0.00 | 0.00 | 0.00 | 62 | 1007.8 |
| 20260510005518 | 81 | 0 | 0.0 | 3.0 | 0.00 | 0.00 | 0.00 | 59 | 1007.9 |
| 20260510005020 | 82 | 57 | 1.0 | 4.0 | 0.00 | 0.00 | 0.00 | 59 | 1007.8 |
| 20260510004537 | 82 | 57 | 1.0 | 5.0 | 0.00 | 0.00 | 0.00 | 58 | 1007.7 |
| 20260510004022 | 83 | 55 | 1.0 | 5.0 | 0.00 | 0.00 | 0.00 | 58 | 1007.7 |
| 20260510003518 | 83 | 54 | 2.0 | 7.0 | 0.00 | 0.00 | 0.00 | 57 | 1007.7 |
| 20260510003036 | 83 | 70 | 2.0 | 7.0 | 0.00 | 0.00 | 0.00 | 57 | 1007.6 |
| 20260510002519 | 84 | 76 | 3.0 | 8.0 | 0.00 | 0.00 | 0.00 | 55 | 1007.7 |
| 20260510002018 | 84 | 77 | 4.0 | 8.0 | 0.00 | 0.00 | 0.00 | 55 | 1007.7 |
| 20260510001540 | 84 | 67 | 3.0 | 9.0 | 0.00 | 0.00 | 0.00 | 54 | 1007.8 |
| 20260510001020 | 84 | 50 | 4.0 | 9.0 | 0.00 | 0.00 | 0.00 | 55 | 1007.8 |
| 20260510000519 | 84 | 48 | 4.0 | 7.0 | 0.00 | 0.00 | 0.00 | 55 | 1007.8 |
| 20260510000044 | 84 | 65 | 4.0 | 9.0 | 0.00 | 0.00 | 0.00 | 55 | 1007.8 |
| 20260509235518 | 85 | 84 | 5.0 | 9.0 | 0.00 | 0.00 | 0.00 | 55 | 1007.8 |
| 20260509235018 | 85 | 67 | 5.0 | 9.0 | 0.00 | 0.00 | 0.00 | 55 | 1007.9 |
| 20260509234557 | 85 | 53 | 3.0 | 7.0 | 0.00 | 0.00 | 0.00 | 57 | 1007.8 |
| 20260509234016 | 86 | 76 | 0.0 | 7.0 | 0.00 | 0.00 | 0.00 | 57 | 1008.0 |
| 20260509233518 | 86 | 0 | 0.0 | 7.0 | 0.00 | 0.00 | 0.00 | 52 | 1008.1 |
| 20260509233036 | 86 | 0 | 0.0 | 8.0 | 0.00 | 0.00 | 0.00 | 52 | 1008.0 |
| 20260509232516 | 86 | 76 | 3.0 | 8.0 | 0.00 | 0.00 | 0.00 | 50 | 1008.0 |
| 20260509232016 | 86 | 82 | 3.0 | 7.0 | 0.00 | 0.00 | 0.00 | 52 | 1008.1 |
| 20260509231536 | 86 | 65 | 3.0 | 7.0 | 0.00 | 0.00 | 0.00 | 50 | 1008.0 |
| 20260509231015 | 86 | 0 | 0.0 | 10.0 | 0.00 | 0.00 | 0.00 | 50 | 1008.0 |
| 20260509230519 | 86 | 0 | 0.0 | 10.0 | 0.00 | 0.00 | 0.00 | 51 | 1008.1 |
| 20260509230034 | 86 | 86 | 2.0 | 9.0 | 0.00 | 0.00 | 0.00 | 50 | 1008.2 |
| 20260509225520 | 86 | 61 | 4.0 | 9.0 | 0.00 | 0.00 | 0.00 | 51 | 1008.2 |
| 20260509225021 | 86 | 46 | 2.0 | 6.0 | 0.00 | 0.00 | 0.00 | 52 | 1008.2 |
| 20260509224541 | 86 | 66 | 3.0 | 7.0 | 0.00 | 0.00 | 0.00 | 52 | 1008.2 |
| 20260509224019 | 86 | 0 | 1.0 | 7.0 | 0.00 | 0.00 | 0.00 | 51 | 1008.2 |
| 20260509223519 | 86 | 42 | 3.0 | 6.0 | 0.00 | 0.00 | 0.00 | 51 | 1008.0 |
| 20260509223041 | 86 | 34 | 1.0 | 6.0 | 0.00 | 0.00 | 0.00 | 51 | 1008.1 |
| 20260509222519 | 87 | 0 | 0.0 | 9.0 | 0.00 | 0.00 | 0.00 | 52 | 1008.1 |
| 20260509222019 | 87 | 0 | 0.0 | 10.0 | 0.00 | 0.00 | 0.00 | 52 | 1008.1 |
| 20260509221600 | 86 | 68 | 4.0 | 10.0 | 0.00 | 0.00 | 0.00 | 53 | 1008.0 |
| 20260509221020 | 86 | 53 | 3.0 | 7.0 | 0.00 | 0.00 | 0.00 | 51 | 1008.0 |
| 20260509220519 | 86 | 92 | 3.0 | 9.0 | 0.00 | 0.00 | 0.00 | 54 | 1008.1 |
| 20260509220036 | 86 | 40 | 3.0 | 9.0 | 0.00 | 0.00 | 0.00 | 55 | 1008.0 |
| 20260509215520 | 86 | 51 | 0.0 | 11.0 | 0.00 | 0.00 | 0.00 | 54 | 1008.1 |
| 20260509215019 | 86 | 67 | 3.0 | 11.0 | 0.00 | 0.00 | 0.00 | 55 | 1008.2 |
| 20260509214536 | 87 | 63 | 4.0 | 10.0 | 0.00 | 0.00 | 0.00 | 55 | 1008.1 |
| 20260509214019 | 87 | 67 | 1.0 | 9.0 | 0.00 | 0.00 | 0.00 | 55 | 1008.1 |
| 20260509213518 | 87 | 0 | 0.0 | 6.0 | 0.00 | 0.00 | 0.00 | 55 | 1008.1 |
| 20260509213041 | 86 | 0 | 0.0 | 6.0 | 0.00 | 0.00 | 0.00 | 56 | 1008.1 |
| 20260509212521 | 87 | 49 | 3.0 | 6.0 | 0.00 | 0.00 | 0.00 | 56 | 1008.2 |
| 20260509212019 | 86 | 0 | 2.0 | 8.0 | 0.00 | 0.00 | 0.00 | 55 | 1008.3 |
| 20260509211545 | 87 | 15 | 2.0 | 9.0 | 0.00 | 0.00 | 0.00 | 57 | 1008.5 |
| 20260509211018 | 87 | 59 | 3.0 | 10.0 | 0.00 | 0.00 | 0.00 | 56 | 1008.5 |
| 20260509210519 | 87 | 78 | 4.0 | 10.0 | 0.00 | 0.00 | 0.00 | 56 | 1008.6 |
| 20260509210044 | 87 | 355 | 2.0 | 9.0 | 0.00 | 0.00 | 0.00 | 56 | 1008.5 |
| 20260509205518 | 87 | 0 | 0.0 | 7.0 | 0.00 | 0.00 | 0.00 | 54 | 1008.7 |
| 20260509205019 | 87 | 29 | 1.0 | 9.0 | 0.00 | 0.00 | 0.00 | 55 | 1008.7 |
| 20260509204535 | 87 | 55 | 3.0 | 9.0 | 0.00 | 0.00 | 0.00 | 55 | 1008.8 |
| 20260509204019 | 86 | 0 | 4.0 | 9.0 | 0.00 | 0.00 | 0.00 | 55 | 1008.9 |
| 20260509203518 | 87 | 13 | 3.0 | 10.0 | 0.00 | 0.00 | 0.00 | 56 | 1009.0 |
| 20260509203041 | 87 | 48 | 2.0 | 11.0 | 0.00 | 0.00 | 0.00 | 57 | 1009.0 |
| 20260509202516 | 87 | 5 | 3.0 | 11.0 | 0.00 | 0.00 | 0.00 | 55 | 1009.0 |
| 20260509202020 | 87 | 0 | 0.0 | 8.0 | 0.00 | 0.00 | 0.00 | 55 | 1008.9 |
| 20260509201535 | 87 | 360 | 1.0 | 8.0 | 0.00 | 0.00 | 0.00 | 56 | 1009.0 |
| 20260509201021 | 87 | 67 | 2.0 | 8.0 | 0.00 | 0.00 | 0.00 | 56 | 1008.9 |
| 20260509200519 | 87 | 19 | 1.0 | 8.0 | 0.00 | 0.00 | 0.00 | 55 | 1009.0 |
| 20260509200044 | 87 | 0 | 0.0 | 2.0 | 0.00 | 0.00 | 0.00 | 55 | 1009.1 |
| 20260509195520 | 87 | 0 | 0.0 | 4.0 | 0.00 | 0.00 | 0.00 | 54 | 1009.2 |
| 20260509195021 | 87 | 0 | 0.0 | 8.0 | 0.00 | 0.00 | 0.00 | 53 | 1009.3 |
| 20260509194532 | 87 | 340 | 1.0 | 8.0 | 0.00 | 0.00 | 0.00 | 52 | 1009.4 |
| 20260509194016 | 86 | 336 | 1.0 | 8.0 | 0.00 | 0.00 | 0.00 | 55 | 1009.5 |
| 20260509193521 | 86 | 0 | 0.0 | 9.0 | 0.00 | 0.00 | 0.00 | 56 | 1009.5 |
| 20260509193044 | 86 | 324 | 4.0 | 9.0 | 0.00 | 0.00 | 0.00 | 55 | 1009.5 |
| 20260509192516 | 86 | 308 | 1.0 | 9.0 | 0.00 | 0.00 | 0.00 | 57 | 1009.5 |
| 20260509192027 | 86 | 0 | 0.0 | 8.0 | 0.00 | 0.00 | 0.00 | 57 | 1009.7 |
| 20260509191548 | 85 | 11 | 1.0 | 8.0 | 0.00 | 0.00 | 0.00 | 59 | 1009.7 |
| 20260509191018 | 85 | 5 | 3.0 | 9.0 | 0.00 | 0.00 | 0.00 | 58 | 1009.8 |
| 20260509190521 | 85 | 0 | 2.0 | 9.0 | 0.00 | 0.00 | 0.00 | 57 | 1009.8 |
| 20260509190044 | 86 | 13 | 2.0 | 7.0 | 0.00 | 0.00 | 0.00 | 58 | 1009.8 |
| 20260509185518 | 85 | 289 | 3.0 | 7.0 | 0.00 | 0.00 | 0.00 | 54 | 1009.9 |
| 20260509185019 | 85 | 44 | 1.0 | 7.0 | 0.00 | 0.00 | 0.00 | 62 | 1009.9 |
| 20260509184542 | 85 | 64 | 1.0 | 8.0 | 0.00 | 0.00 | 0.00 | 61 | 1010.0 |
| 20260509184015 | 85 | 50 | 3.0 | 9.0 | 0.00 | 0.00 | 0.00 | 63 | 1010.0 |
| 20260509183516 | 85 | 0 | 2.0 | 9.0 | 0.00 | 0.00 | 0.00 | 61 | 1010.0 |
| 20260509183043 | 84 | 324 | 2.0 | 9.0 | 0.00 | 0.00 | 0.00 | 63 | 1010.2 |
| 20260509182518 | 84 | 0 | 1.0 | 6.0 | 0.00 | 0.00 | 0.00 | 61 | 1010.1 |
| 20260509182019 | 84 | 0 | 0.0 | 6.0 | 0.00 | 0.00 | 0.00 | 63 | 1010.1 |
| 20260509181542 | 84 | 0 | 2.0 | 7.0 | 0.00 | 0.00 | 0.00 | 62 | 1010.3 |
| 20260509181030 | 84 | 333 | 0.0 | 8.0 | 0.00 | 0.00 | 0.00 | 62 | 1010.4 |
| 20260509180519 | 84 | 0 | 1.0 | 8.0 | 0.00 | 0.00 | 0.00 | 59 | 1010.4 |
| 20260509180041 | 84 | 284 | 2.0 | 8.0 | 0.00 | 0.00 | 0.00 | 59 | 1010.4 |
| 20260509175519 | 83 | 14 | 0.0 | 8.0 | 0.00 | 0.00 | 0.00 | 62 | 1010.5 |
| 20260509175023 | 83 | 301 | 4.0 | 9.0 | 0.00 | 0.00 | 0.00 | 61 | 1010.6 |
| 20260509174535 | 83 | 265 | 2.0 | 9.0 | 0.00 | 0.00 | 0.00 | 59 | 1010.7 |
| 20260509174018 | 83 | 320 | 2.0 | 9.0 | 0.00 | 0.00 | 0.00 | 61 | 1010.8 |
| 20260509173518 | 82 | 340 | 2.0 | 6.0 | 0.00 | 0.00 | 0.00 | 61 | 1010.8 |
| 20260509173054 | 82 | 0 | 0.0 | 6.0 | 0.00 | 0.00 | 0.00 | 60 | 1010.8 |
| 20260509172519 | 82 | 279 | 0.0 | 7.0 | 0.00 | 0.00 | 0.00 | 61 | 1010.9 |
| 20260509172019 | 82 | 0 | 0.0 | 7.0 | 0.00 | 0.00 | 0.00 | 59 | 1010.9 |
| 20260509171551 | 82 | 279 | 3.0 | 7.0 | 0.00 | 0.00 | 0.00 | 60 | 1010.9 |
| 20260509171015 | 82 | 331 | 0.0 | 8.0 | 0.00 | 0.00 | 0.00 | 62 | 1011.0 |
| 20260509170518 | 82 | 0 | 3.0 | 8.0 | 0.00 | 0.00 | 0.00 | 59 | 1011.0 |
| 20260509170043 | 82 | 0 | 0.0 | 5.0 | 0.00 | 0.00 | 0.00 | 62 | 1011.0 |
| 20260509165518 | 82 | 0 | 0.0 | 5.0 | 0.00 | 0.00 | 0.00 | 62 | 1011.1 |
| 20260509165015 | 81 | 0 | 0.0 | 6.0 | 0.00 | 0.00 | 0.00 | 61 | 1011.0 |
| 20260509164547 | 81 | 0 | 0.0 | 9.0 | 0.00 | 0.00 | 0.00 | 64 | 1011.3 |
| 20260509164019 | 80 | 0 | 2.0 | 9.0 | 0.00 | 0.00 | 0.00 | 61 | 1011.3 |
| 20260509163520 | 80 | 273 | 0.0 | 9.0 | 0.00 | 0.00 | 0.00 | 64 | 1011.2 |
| 20260509163047 | 80 | 0 | 3.0 | 9.0 | 0.00 | 0.00 | 0.00 | 62 | 1011.3 |
| 20260509162516 | 80 | 294 | 3.0 | 9.0 | 0.00 | 0.00 | 0.00 | 64 | 1011.3 |
| 20260509162022 | 80 | 269 | 1.0 | 9.0 | 0.00 | 0.00 | 0.00 | 65 | 1011.3 |
| 20260509161535 | 79 | 269 | 4.0 | 10.0 | 0.00 | 0.00 | 0.00 | 64 | 1011.2 |
| 20260509161018 | 79 | 0 | 1.0 | 10.0 | 0.00 | 0.00 | 0.00 | 66 | 1011.2 |
| 20260509160519 | 78 | 284 | 4.0 | 10.0 | 0.00 | 0.00 | 0.00 | 65 | 1011.2 |
| 20260509160035 | 78 | 261 | 3.0 | 10.0 | 0.00 | 0.00 | 0.00 | 67 | 1011.2 |
| 20260509155515 | 78 | 0 | 2.0 | 10.0 | 0.00 | 0.00 | 0.00 | 68 | 1011.1 |
| 20260509155021 | 78 | 294 | 4.0 | 10.0 | 0.00 | 0.00 | 0.00 | 68 | 1011.2 |
| 20260509154542 | 77 | 272 | 3.0 | 10.0 | 0.00 | 0.00 | 0.00 | 68 | 1011.2 |
| 20260509154019 | 77 | 277 | 4.0 | 10.0 | 0.00 | 0.00 | 0.00 | 69 | 1011.1 |
| 20260509153519 | 77 | 278 | 5.0 | 10.0 | 0.00 | 0.00 | 0.00 | 69 | 1011.1 |
| 20260509153043 | 77 | 264 | 3.0 | 10.0 | 0.00 | 0.00 | 0.00 | 69 | 1011.1 |
| 20260509152519 | 76 | 0 | 3.0 | 11.0 | 0.00 | 0.00 | 0.00 | 70 | 1011.1 |
| 20260509152019 | 76 | 279 | 4.0 | 11.0 | 0.00 | 0.00 | 0.00 | 70 | 1011.1 |
| 20260509151539 | 76 | 294 | 5.0 | 11.0 | 0.00 | 0.00 | 0.00 | 69 | 1011.2 |
| 20260509151019 | 76 | 284 | 5.0 | 9.0 | 0.00 | 0.00 | 0.00 | 69 | 1011.1 |
| 20260509150517 | 76 | 252 | 5.0 | 9.0 | 0.00 | 0.00 | 0.00 | 70 | 1011.2 |
| 20260509150035 | 76 | 253 | 4.0 | 13.0 | 0.00 | 0.00 | 0.00 | 70 | 1011.2 |
| 20260509145516 | 76 | 189 | 3.0 | 13.0 | 0.00 | 0.00 | 0.00 | 69 | 1011.3 |
| 20260509145018 | 76 | 0 | 0.0 | 10.0 | 0.00 | 0.00 | 0.00 | 70 | 1011.2 |
| 20260509144544 | 76 | 0 | 0.0 | 10.0 | 0.00 | 0.00 | 0.00 | 71 | 1011.3 |
| 20260509144016 | 76 | 0 | 0.0 | 9.0 | 0.00 | 0.00 | 0.00 | 70 | 1011.3 |
| 20260509143516 | 76 | 281 | 3.0 | 12.0 | 0.00 | 0.00 | 0.00 | 70 | 1011.3 |
| 20260509143035 | 76 | 292 | 5.0 | 12.0 | 0.00 | 0.00 | 0.00 | 71 | 1011.2 |
| 20260509142515 | 76 | 0 | 0.0 | 4.0 | 0.00 | 0.00 | 0.00 | 73 | 1011.1 |
| 20260509142021 | 76 | 0 | 0.0 | 4.0 | 0.00 | 0.00 | 0.00 | 76 | 1011.1 |
| 20260509141537 | 76 | 0 | 0.0 | 0.0 | 0.00 | 0.00 | 0.00 | 79 | 1011.2 |
| 20260509141016 | 75 | 0 | 0.0 | 0.0 | 0.00 | 0.00 | 0.00 | 80 | 1011.1 |
| 20260509140515 | 75 | 0 | 0.0 | 0.0 | 0.00 | 0.00 | 0.00 | 81 | 1011.2 |
| 20260509140041 | 74 | 0 | 0.0 | 0.0 | 0.00 | 0.00 | 0.00 | 82 | 1011.2 |
| 20260509135520 | 73 | 0 | 0.0 | 0.0 | 0.00 | 0.00 | 0.00 | 83 | 1011.2 |
| 20260509135020 | 73 | 0 | 0.0 | 0.0 | 0.00 | 0.00 | 0.00 | 84 | 1011.1 |
| 20260509134550 | 73 | 0 | 0.0 | 0.0 | 0.00 | 0.00 | 0.00 | 84 | 1011.1 |
| 20260509134016 | 72 | 0 | 0.0 | 0.0 | 0.00 | 0.00 | 0.00 | 85 | 1011.2 |
| 20260509133516 | 72 | 0 | 0.0 | 0.0 | 0.00 | 0.00 | 0.00 | 86 | 1011.2 |
| 20260509133037 | 71 | 0 | 0.0 | 0.0 | 0.00 | 0.00 | 0.00 | 86 | 1011.1 |
| 20260509132516 | 71 | 0 | 0.0 | 0.0 | 0.00 | 0.00 | 0.00 | 87 | 1011.0 |
| 20260509132016 | 71 | 0 | 0.0 | 0.0 | 0.00 | 0.00 | 0.00 | 88 | 1011.1 |
| 20260509131552 | 70 | 0 | 0.0 | 0.0 | 0.00 | 0.00 | 0.00 | 89 | 1011.0 |
| 20260509131015 | 70 | 0 | 0.0 | 0.0 | 0.00 | 0.00 | 0.00 | 90 | 1011.0 |
| 20260509130518 | 69 | 0 | 0.0 | 0.0 | 0.00 | 0.00 | 0.00 | 91 | 1011.0 |
| 20260509130047 | 68 | 0 | 0.0 | 0.0 | 0.00 | 0.00 | 0.00 | 91 | 1011.1 |
| 20260509125516 | 68 | 0 | 0.0 | 0.0 | 0.00 | 0.00 | 0.00 | 91 | 1011.1 |
| 20260509125022 | 68 | 0 | 0.0 | 3.0 | 0.00 | 0.00 | 0.00 | 92 | 1011.0 |
| 20260509124541 | 67 | 0 | 0.0 | 6.0 | 0.00 | 0.00 | 0.00 | 92 | 1011.0 |
| 20260509124018 | 67 | 281 | 2.0 | 6.0 | 0.00 | 0.00 | 0.00 | 92 | 1011.0 |
| 20260509123518 | 67 | 285 | 0.0 | 4.0 | 0.00 | 0.00 | 0.00 | 93 | 1010.9 |
| 20260509123048 | 67 | 0 | 0.0 | 3.0 | 0.00 | 0.00 | 0.00 | 93 | 1010.8 |
| 20260509122516 | 67 | 0 | 0.0 | 2.0 | 0.00 | 0.00 | 0.00 | 93 | 1010.8 |
| 20260509122018 | 66 | 0 | 0.0 | 4.0 | 0.00 | 0.00 | 0.00 | 93 | 1010.8 |
| 20260509121537 | 66 | 0 | 0.0 | 4.0 | 0.00 | 0.00 | 0.00 | 93 | 1010.8 |
| 20260509121019 | 66 | 0 | 0.0 | 0.0 | 0.00 | 0.00 | 0.00 | 93 | 1010.7 |
| 20260509120519 | 66 | 0 | 0.0 | 0.0 | 0.00 | 0.00 | 0.00 | 93 | 1010.6 |
| 20260509120034 | 66 | 0 | 0.0 | 0.0 | 0.00 | 0.00 | 0.00 | 93 | 1010.7 |
| 20260509115515 | 66 | 0 | 0.0 | 0.0 | 0.00 | 0.00 | 0.00 | 93 | 1010.6 |
| 20260509115021 | 66 | 0 | 0.0 | 0.0 | 0.00 | 0.00 | 0.00 | 93 | 1010.7 |
| 20260509114531 | 66 | 0 | 0.0 | 0.0 | 0.00 | 0.00 | 0.00 | 93 | 1010.8 |
| 20260509114016 | 66 | 0 | 0.0 | 0.0 | 0.00 | 0.00 | 0.00 | 93 | 1010.7 |
| 20260509113521 | 66 | 0 | 0.0 | 0.0 | 0.00 | 0.00 | 0.00 | 93 | 1010.6 |
| 20260509113046 | 67 | 0 | 0.0 | 0.0 | 0.00 | 0.00 | 0.00 | 93 | 1010.5 |
| 20260509112515 | 67 | 0 | 0.0 | 1.0 | 0.00 | 0.00 | 0.00 | 93 | 1010.4 |
| 20260509112016 | 66 | 0 | 0.0 | 1.0 | 0.00 | 0.00 | 0.00 | 93 | 1010.4 |